Pskov current weather conditions

sailwx.info

Wind from 200 at 7 knots

Air temperature 1.0° C
Visibility: greater than 5.4 NM
Dewpoint -0.0° C

Last reported at 2020-Jan-17 17:00 UTC.
Time now 2020-Jan-17 19:18 UTC

Location: N 57°47' E 028°24'.
View on Google Maps.

See reports from other nearby stations

  
Tides and Currents Weather Stations Pressure Air Temp Water Temp Dewpoint Dewpoint Depression Visibility Wind Speed Wind Dir Waves Ship Positions
date/time (UTC)wind fromknots sea level pressurealtimeterstation pressurevisibilityair tempwater tempwave heightnotes
2020-Jan-17 17:00 200 7 5.4 1.0
2020-Jan-17 16:00 200 5 4.9 2.0
2020-Jan-17 15:00 190 5 4.9 2.0
2020-Jan-17 14:00 220 5 2.7 4.0
2020-Jan-17 13:30 220 5 2.7 5.0
2020-Jan-17 13:00 230 7 2.7 5.0
2020-Jan-17 12:30 230 5 2.7 5.0
2020-Jan-17 12:00 240 5 2.7 6.0
2020-Jan-17 11:30 240 7 2.7 6.0
2020-Jan-17 11:00 250 9 2.7 6.0
2020-Jan-17 10:30 250 7 2.7 6.0
2020-Jan-17 10:00 250 11 2.7 6.0
2020-Jan-17 09:30 240 9 2.7 6.0
2020-Jan-17 09:00 240 9 2.7 6.0
2020-Jan-17 08:30 240 7 2.7 5.0
2020-Jan-17 08:00 250 7 2.7 5.0
2020-Jan-17 07:30 240 7 2.7 5.0
2020-Jan-17 07:00 240 7 2.7 5.0
2020-Jan-17 06:30 250 9 2.7 5.0
2020-Jan-17 06:00 250 9 2.7 5.0
2020-Jan-17 05:30 250 9 2.7 6.0
2020-Jan-17 05:00 250 5 2.7 6.0
2020-Jan-17 04:00 250 9 5.4 6.0
2020-Jan-17 03:00 240 9 5.4 6.0
2020-Jan-17 02:00 240 9 5.4 6.0
2020-Jan-17 01:00 250 11 5.4 6.0
2020-Jan-17 00:00 250 9 5.4 6.0
2020-Jan-16 23:00 240 9 5.4 6.0
2020-Jan-16 22:00 260 11 5.4 6.0
2020-Jan-16 21:00 240 7 5.4 6.0
2020-Jan-16 20:00 230 7 4.9 5.0
2020-Jan-16 19:00 230 9 5.4 6.0
2020-Jan-16 18:00 230 9 5.4 6.0
2020-Jan-16 17:00 210 7 5.4 5.0
2020-Jan-16 16:00 210 7 5.4 5.0
2020-Jan-16 15:00 220 7 5.4 5.0
2020-Jan-16 14:00 250 13 2.7 6.0 Light rain showers.
2020-Jan-16 13:30 250 11 2.7 6.0
2020-Jan-16 13:00 260 13 2.7 6.0
2020-Jan-16 12:30 250 13 2.7 7.0
2020-Jan-16 12:00 260 11 2.7 7.0
2020-Jan-16 11:30 280 9 2.7 7.0
2020-Jan-16 11:00 250 13 2.7 7.0
2020-Jan-16 10:30 270 13 2.7 7.0
2020-Jan-16 10:00 260 13 2.7 7.0
2020-Jan-16 09:30 290 9 2.7 7.0
2020-Jan-16 09:00 300 13 gusting 23 2.7 7.0 Light rain showers.
2020-Jan-16 08:30 280 11 2.7 8.0
2020-Jan-16 08:00 240 9 2.7 8.0
2020-Jan-16 07:30 230 11 gusting 21 2.7 8.0
2020-Jan-16 07:00 230 13 2.7 7.0
2020-Jan-16 06:30 230 13 2.7 7.0
2020-Jan-16 06:00 230 13 gusting 23 2.7 7.0
2020-Jan-16 05:30 210 11 2.7 7.0
2020-Jan-16 05:00 210 9 2.7 6.0 Light rain showers.
2020-Jan-16 04:00 180 11 5.4 6.0
2020-Jan-16 03:00 180 11 5.4 6.0
2020-Jan-16 02:00 190 11 5.4 6.0
2020-Jan-16 01:00 190 13 5.4 7.0
2020-Jan-16 00:00 200 15 5.4 8.0
2020-Jan-15 23:00 200 13 5.4 8.0
2020-Jan-15 22:00 200 13 5.4 7.0
2020-Jan-15 21:00 200 13 5.4 7.0
2020-Jan-15 20:00 210 15 5.4 7.0
2020-Jan-15 19:00 210 15 5.4 7.0